Hilton Head Island, SC

9:12 AM EDT on July 28, 2017 (GMT -0400)
Hilton Head

Weather History for KHXD - April, 2013

Change the Weather History Date:

Friday, April 12, 2013

  Actual Average Record
Temperature  
Mean Temperature 70 °F -  
Max Temperature 75 °F 74 °F 86 °F (1965)
Min Temperature 66 °F 51 °F 36 °F (1989)
Cooling Degree Days 6    
Growing Degree Days 20 (Base 50)    
Moisture  
Dew Point 68 °F    
Average Humidity 96    
Maximum Humidity 100    
Minimum Humidity 78    
Precipitation  
Precipitation 0.14 in - - ()
Sea Level Pressure  
Sea Level Pressure 29.83 in    
Wind  
Wind Speed 7 mph (South)    
Max Wind Speed 12 mph    
Max Gust Speed 22 mph    
Visibility 4 miles    
Events Rain , Thunderstorm    
Averages and records for this station are not official NWS values.
T = Trace of Precipitation, MM = Missing Value Source: NWS Daily Summary

Daily Weather History Graph

Daily Weather History Graph

Search for Another Location

Airport or City:

Trip Planner

Search our weather history database for the weather conditions in past years. The results will help you decide how hot, cold, wet, or windy it might be!

Date:

Astronomy

Apr. 12, 2013 Rise Set
Actual Time 6:57 AM EDT 7:50 PM EDT
Civil Twilight 6:32 AM EDT 8:15 PM EDT
Nautical Twilight 6:02 AM EDT 8:45 PM EDT
Astronomical Twilight 5:32 AM EDT 9:15 PM EDT
Moon 8:13 AM EDT (4/12) 10:11 PM EDT (4/12)
Length of Visible Light 13h 43m
Length of Day
12h 53m
Waxing Crescent, 5% of the Moon is Illuminated
Apr 12
Waxing Crescent
Apr 18
First Quarter
Apr 25
Full
May 2
Last Quarter
May 9
New

Hourly Weather History & Observations

Time (EDT) Temp. Dew Point Humidity Pressure Visibility Wind Dir Wind Speed Gust Speed Precip Events Conditions
12:15 AM 68.0 °F 68.0 °F 100% 29.88 in 6.0 mi South 5.8 mph - 0.00 in   Mostly Cloudy
12:35 AM 68.0 °F 68.0 °F 100% 29.87 in 6.0 mi South 6.9 mph - 0.00 in   Mostly Cloudy
12:55 AM 68.0 °F 68.0 °F 100% 29.87 in 6.0 mi South 8.1 mph - 0.00 in   Scattered Clouds
1:15 AM 68.0 °F 68.0 °F 100% 29.87 in 3.0 mi South 8.1 mph - 0.04 in   Mostly Cloudy
1:35 AM 69.8 °F 69.8 °F 100% 29.86 in 3.0 mi South 9.2 mph 18.4 mph 0.13 in Thunderstorm Overcast
1:55 AM 68.0 °F 68.0 °F 100% 29.85 in 3.0 mi South 11.5 mph 20.7 mph 0.14 in   Overcast
2:15 AM 68.0 °F 68.0 °F 100% 29.85 in 5.0 mi South 6.9 mph 19.6 mph 0.00 in Thunderstorm Overcast
2:35 AM 68.0 °F 68.0 °F 100% 29.85 in 4.0 mi South 10.4 mph 21.9 mph 0.00 in   Overcast
2:55 AM 69.8 °F 69.8 °F 100% 29.85 in 4.0 mi SSW 11.5 mph 19.6 mph 0.00 in Rain , Thunderstorm Thunderstorms and Rain
3:15 AM 69.8 °F 69.8 °F 100% 29.83 in 4.0 mi South 11.5 mph 19.6 mph 0.00 in   Overcast
3:35 AM 69.8 °F 69.8 °F 100% 29.82 in 4.0 mi South 8.1 mph 20.7 mph 0.00 in   Overcast
3:55 AM 69.8 °F 69.8 °F 100% 29.81 in 3.0 mi South 10.4 mph 20.7 mph 0.00 in   Overcast
4:15 AM 68.0 °F 68.0 °F 100% 29.78 in 3.0 mi South 9.2 mph 19.6 mph 0.00 in   Overcast
4:35 AM 68.0 °F 68.0 °F 100% 29.79 in 3.0 mi South 6.9 mph 17.3 mph 0.00 in   Overcast
4:55 AM 68.0 °F 68.0 °F 100% 29.79 in 2.5 mi South 8.1 mph - 0.00 in   Overcast
5:15 AM 68.0 °F 68.0 °F 100% 29.79 in 2.5 mi South 9.2 mph 18.4 mph 0.00 in   Overcast
5:55 AM 68.0 °F 68.0 °F 100% 29.80 in 2.0 mi South 9.2 mph 17.3 mph 0.00 in   Overcast
6:15 AM 68.0 °F 68.0 °F 100% 29.80 in 3.0 mi South 5.8 mph - 0.00 in   Overcast
6:35 AM 68.0 °F 68.0 °F 100% 29.80 in 3.0 mi South 5.8 mph - 0.00 in   Overcast
6:50 AM 68.0 °F 68.0 °F 100% 29.81 in 2.0 mi South 9.2 mph - N/A   Overcast
7:52 AM 68.0 °F 68.0 °F 100% 29.82 in 2.0 mi SSW 5.8 mph - N/A   Overcast
8:50 AM 68.0 °F 68.0 °F 100% 29.84 in 2.0 mi South 6.9 mph - N/A   Overcast
10:50 AM 71.6 °F 71.6 °F 100% 29.83 in 5.0 mi SSW 9.2 mph 17.3 mph N/A   Overcast
11:25 AM 71.6 °F 68.0 °F 88% 29.94 in 5.0 mi SSW 6.9 mph 17.3 mph N/A   Overcast
11:50 AM 73.4 °F 68.0 °F 83% 29.83 in 6.0 mi SSW 10.4 mph - N/A   Mostly Cloudy
12:50 PM 75.2 °F 71.6 °F 89% 29.82 in 6.0 mi South 11.5 mph 21.9 mph N/A   Scattered Clouds
1:08 PM 73.4 °F 68.0 °F 83% 29.80 in 6.0 mi South 9.2 mph 19.6 mph N/A   Overcast
1:50 PM 73.4 °F 68.0 °F 83% 29.79 in 6.0 mi South 10.4 mph 18.4 mph N/A   Mostly Cloudy
3:50 PM 75.2 °F 68.0 °F 78% 29.78 in 6.0 mi South 8.1 mph 16.1 mph N/A   Mostly Cloudy
4:50 PM 73.4 °F 68.0 °F 83% 29.76 in 6.0 mi SSW 6.9 mph 13.8 mph N/A Rain Light Rain
5:50 PM 71.6 °F 68.0 °F 88% 29.97 in 5.0 mi SSW 5.8 mph - N/A Rain Light Rain
6:50 PM 71.6 °F 68.0 °F 88% 29.79 in 5.0 mi South 4.6 mph - N/A   Mostly Cloudy
7:50 PM 71.6 °F 68.0 °F 88% 29.80 in 5.0 mi SSW 3.5 mph - N/A   Mostly Cloudy
9:15 PM 69.8 °F 69.8 °F 100% 29.82 in 3.0 mi Calm Calm - 0.00 in   Clear
9:55 PM 68.0 °F 68.0 °F 100% 29.84 in 3.0 mi Calm Calm - 0.00 in   Scattered Clouds
10:15 PM 68.0 °F 68.0 °F 100% 29.85 in 2.5 mi South 3.5 mph - 0.00 in   Clear
10:35 PM 68.0 °F 68.0 °F 100% 29.85 in 3.0 mi Calm Calm - 0.00 in   Clear
10:55 PM 68.0 °F 68.0 °F 100% 29.86 in 2.5 mi Calm Calm - 0.00 in   Clear
11:15 PM 68.0 °F 68.0 °F 100% 29.86 in 3.0 mi Calm Calm - 0.00 in   Mostly Cloudy
11:35 PM 66.2 °F 66.2 °F 100% 29.87 in 3.0 mi West 4.6 mph - 0.00 in   Scattered Clouds
11:55 PM 66.2 °F 66.2 °F 100% 29.87 in 8.0 mi WSW 3.5 mph - 0.00 in   Partly Cloudy